Location: Winthrop
(48.4780°N, 120.1850°W)
Time: 03:05:52
(UTC-08:00)

Vanguard 1 Rocket - Pass Details

Date: 03 December 2023
Orbit: 654 x 4218 km, 34.3° (Epoch: 24 February)

Event Time Altitude Azimuth Distance (km) Brightness Sun altitude
Rises 05:53:57 0° 236° (SW) 8,026 11.8 -15.8°
Reaches altitude 10° 06:00:33 10° 230° (SW) 6,578 11.4 -14.8°
Maximum altitude 06:17:07 38° 172° (S) 3,225 10.4 -12.2°
Drops below altitude 10° 06:26:34 10° 109° (ESE) 3,799 12.2 -10.7°
Sets 06:29:14 0° 100° (E) 4,432 12.8 -10.3°
